Raleigh-Durham Airport, NC

12:52 PM EST on December 16, 2017 (GMT -0500)
Raleigh-Durham International

Weather History for KRDU - November, 2010

Change the Weather History Date:

Monday, November 1, 2010

  Actual Average Record
Temperature  
Mean Temperature 55 °F 56 °F  
Max Temperature 63 °F 68 °F 88 °F (1950)
Min Temperature 46 °F 45 °F 26 °F (1954)
Degree Days  
Heating Degree Days 10 9  
Month to date heating degree days 10 9  
Since 1 July heating degree days 119 198  
Cooling Degree Days 0 1  
Month to date cooling degree days 0 1  
Year to date cooling degree days 2315 1721  
Growing Degree Days 4 (Base 50)    
Moisture  
Dew Point 37 °F    
Average Humidity 55    
Maximum Humidity 71    
Minimum Humidity 39    
Precipitation  
Precipitation 0.00 in 0.11 in 1.89 in (1897)
Month to date precipitation 0.00 0.11  
Year to date precipitation 33.10 37.26  
Sea Level Pressure  
Sea Level Pressure 30.27 in    
Wind  
Wind Speed 8 mph (NE)    
Max Wind Speed 16 mph    
Max Gust Speed 24 mph    
Visibility 10 miles    
Events      
T = Trace of Precipitation, MM = Missing Value Source: NWS Daily Summary

Daily Weather History Graph

Daily Weather History Graph

Search for Another Location

Airport or City:

Trip Planner

Search our weather history database for the weather conditions in past years. The results will help you decide how hot, cold, wet, or windy it might be!

Date:

Astronomy

Nov. 01, 2010 Rise Set
Actual Time 7:37 AM EDT 6:19 PM EDT
Civil Twilight 7:10 AM EDT 6:45 PM EDT
Nautical Twilight 6:40 AM EDT 7:16 PM EDT
Astronomical Twilight 6:10 AM EDT 7:46 PM EDT
Moon 2:21 AM EDT (11/1) 3:17 PM EDT (11/1)
Length of Visible Light 11h 35m
Length of Day
10h 42m
Waning Crescent, 26% of the Moon is Illuminated
Nov 1
Waning Crescent
Nov 6
New
Nov 13
First Quarter
Nov 21
Full
Nov 28
Last Quarter

Hourly Weather History & Observations

Time (EDT) Temp. Dew Point Humidity Pressure Visibility Wind Dir Wind Speed Gust Speed Precip Events Conditions
12:51 AM 53.1 °F 45.0 °F 74% 30.11 in 10.0 mi NE 12.7 mph - N/A   Clear
1:51 AM 52.0 °F 41.0 °F 66% 30.14 in 10.0 mi NE 12.7 mph - N/A   Clear
2:51 AM 52.0 °F 37.9 °F 59% 30.16 in 10.0 mi NE 10.4 mph - N/A   Clear
3:51 AM 50.0 °F 37.0 °F 61% 30.17 in 10.0 mi NE 9.2 mph - N/A   Clear
4:51 AM 48.9 °F 35.1 °F 59% 30.19 in 10.0 mi NNE 6.9 mph - N/A   Clear
5:51 AM 48.0 °F 34.0 °F 58% 30.22 in 10.0 mi NNE 9.2 mph - N/A   Clear
6:51 AM 48.0 °F 33.1 °F 56% 30.24 in 10.0 mi NNE 5.8 mph - N/A   Clear
7:51 AM 46.9 °F 33.1 °F 59% 30.26 in 10.0 mi NE 8.1 mph - N/A   Partly Cloudy
8:51 AM 48.9 °F 34.0 °F 56% 30.29 in 10.0 mi NE 8.1 mph - N/A   Scattered Clouds
9:51 AM 52.0 °F 37.0 °F 57% 30.31 in 10.0 mi NE 9.2 mph - N/A   Scattered Clouds
10:51 AM 55.9 °F 36.0 °F 47% 30.31 in 10.0 mi NE 11.5 mph - N/A   Mostly Cloudy
11:51 AM 59.0 °F 35.1 °F 41% 30.31 in 10.0 mi ENE 12.7 mph - N/A   Mostly Cloudy
12:51 PM 60.1 °F 35.1 °F 39% 30.29 in 10.0 mi ENE 10.4 mph - N/A   Scattered Clouds
1:51 PM 61.0 °F 37.0 °F 41% 30.27 in 10.0 mi ENE 6.9 mph - N/A   Mostly Cloudy
2:51 PM 62.1 °F 37.0 °F 39% 30.26 in 10.0 mi NE 6.9 mph - N/A   Mostly Cloudy
3:51 PM 62.1 °F 37.9 °F 41% 30.26 in 10.0 mi ENE 6.9 mph - N/A   Mostly Cloudy
4:51 PM 61.0 °F 37.9 °F 42% 30.27 in 10.0 mi NNE 8.1 mph - N/A   Mostly Cloudy
5:51 PM 57.0 °F 37.9 °F 49% 30.28 in 10.0 mi NNE 8.1 mph - N/A   Mostly Cloudy
6:51 PM 53.1 °F 37.9 °F 57% 30.30 in 10.0 mi NE 6.9 mph - N/A   Mostly Cloudy
7:51 PM 51.1 °F 37.0 °F 59% 30.32 in 10.0 mi NE 6.9 mph - N/A   Mostly Cloudy
8:51 PM 48.9 °F 37.9 °F 66% 30.33 in 10.0 mi ENE 4.6 mph - N/A   Scattered Clouds
9:51 PM 48.0 °F 37.9 °F 68% 30.35 in 10.0 mi ENE 5.8 mph - N/A   Mostly Cloudy
10:51 PM 48.9 °F 37.0 °F 64% 30.35 in 10.0 mi ENE 8.1 mph - N/A   Mostly Cloudy
11:51 PM 48.9 °F 36.0 °F 61% 30.37 in 10.0 mi ENE 10.4 mph - N/A   Mostly Cloudy